Location: Acequia del Cap
(41.7000°N, 0.6167°E)
Time: 22:57:11
(UTC+00:00)

SL-16 R/B - Pass Details

Date: 07 August 2020
Orbit: 985 x 1007 km, 99.5° (Epoch: 22 September)

Event Time Altitude Azimuth Distance (km) Brightness Sun altitude
Exits shadow 00:28:37 21° 96° (E) 2,070 4.2 -31.7°
Maximum altitude 00:31:01 27° 62° (ENE) 1,817 4.1 -31.6°
Drops below altitude 10° 00:36:08 10° 7° (N) 2,789 5.8 -31.5°
Sets 00:38:58 0° 356° (N) 3,741 6.6 -31.4°
